Hourly Weather Allen

Today, 25 November, Wednesday

Time Temperature Precipitation Wind Pressure Humidity
00:00 +16°C° 0 mm 6 mps 741 mmHg 61%
01:00 +14°C° 0 mm 6 mps 741 mmHg 59%
02:00 +10°C° 0 mm 5 mps 742 mmHg 57%
03:00 +8°C° 0 mm 5 mps 743 mmHg 55%
04:00 +8°C° 0 mm 5 mps 743 mmHg 57%
05:00 +8°C° 0 mm 5 mps 744 mmHg 59%
06:00 +7°C° 0 mm 5 mps 744 mmHg 62%
07:00 +8°C° 0 mm 5 mps 745 mmHg 56%
08:00 +9°C° 0 mm 6 mps 745 mmHg 50%
09:00 +10°C° 0 mm 7 mps 746 mmHg 44%
10:00 +11°C° 0 mm 6 mps 746 mmHg 42%
11:00 +13°C° 0 mm 6 mps 746 mmHg 40%
12:00 +14°C° 0 mm 5 mps 746 mmHg 37%
13:00 +15°C° 0 mm 5 mps 746 mmHg 36%
14:00 +15°C° 0 mm 4 mps 745 mmHg 34%
15:00 +17°C° 0 mm 3 mps 745 mmHg 33%
16:00 +16°C° 0 mm 2 mps 745 mmHg 37%
17:00 +14°C° 0 mm 1 mps 744 mmHg 40%
18:00 +12°C° 0 mm 0 mps 744 mmHg 44%
19:00 +13°C° 0 mm 1 mps 745 mmHg 44%
20:00 +12°C° 0 mm 1 mps 745 mmHg 44%
21:00 +12°C° 0 mm 1 mps 745 mmHg 44%
22:00 +12°C° 0 mm 2 mps 745 mmHg 45%
23:00 +12°C° 0 mm 2 mps 745 mmHg 46%

Tomorrow, 26 November, Thursday

Time Temperature Precipitation Wind Pressure Humidity
00:00 +10°C° 0 mm 2 mps 745 mmHg 47%
01:00 +10°C° 0 mm 2 mps 745 mmHg 48%
02:00 +10°C° 0 mm 3 mps 745 mmHg 50%
03:00 +9°C° 0 mm 3 mps 745 mmHg 52%
04:00 +9°C° 0 mm 3 mps 745 mmHg 54%
05:00 +9°C° 0 mm 3 mps 745 mmHg 56%
06:00 +9°C° 0 mm 3 mps 745 mmHg 57%
07:00 +9°C° 0 mm 3 mps 745 mmHg 57%
08:00 +10°C° 0 mm 4 mps 745 mmHg 56%
09:00 +11°C° 0 mm 4 mps 745 mmHg 55%
10:00 +13°C° 0 mm 4 mps 745 mmHg 51%
11:00 +14°C° 0 mm 4 mps 745 mmHg 47%
12:00 +16°C° 0 mm 5 mps 744 mmHg 43%
13:00 +18°C° 0 mm 4 mps 744 mmHg 41%
14:00 +19°C° 0 mm 4 mps 743 mmHg 39%
15:00 +20°C° 0 mm 4 mps 742 mmHg 37%
16:00 +19°C° 0 mm 4 mps 742 mmHg 44%
17:00 +18°C° 0 mm 3 mps 742 mmHg 50%
18:00 +16°C° 0 mm 3 mps 742 mmHg 56%
19:00 +16°C° 0 mm 3 mps 743 mmHg 62%
20:00 +16°C° 0 mm 3 mps 743 mmHg 68%
21:00 +15°C° 0 mm 4 mps 743 mmHg 74%
22:00 +16°C° 0 mm 3 mps 743 mmHg 79%
23:00 +16°C° 0 mm 3 mps 743 mmHg 84%

Day after tomorrow, 27 November, Friday

Time Temperature Precipitation Wind Pressure Humidity
00:00 +16°C° 0 mm 3 mps 744 mmHg 89%
01:00 +14°C° 0 mm 3 mps 744 mmHg 90%
02:00 +15°C° 0 mm 2 mps 744 mmHg 91%
03:00 +15°C° 0 mm 1 mps 744 mmHg 93%
04:00 +15°C° 0 mm 2 mps 744 mmHg 91%
05:00 +14°C° 0 mm 3 mps 745 mmHg 88%
06:00 +13°C° 0 mm 4 mps 745 mmHg 86%
07:00 +13°C° 0 mm 4 mps 746 mmHg 79%
08:00 +12°C° 0 mm 5 mps 746 mmHg 72%
09:00 +10°C° 0 mm 6 mps 746 mmHg 66%
10:00 +11°C° 0 mm 6 mps 747 mmHg 63%
11:00 +13°C° 0 mm 5 mps 747 mmHg 60%
12:00 +14°C° 0 mm 5 mps 747 mmHg 58%
13:00 +15°C° 0 mm 6 mps 746 mmHg 58%
14:00 +15°C° 0 mm 6 mps 746 mmHg 57%
15:00 +16°C° 0 mm 6 mps 746 mmHg 57%
16:00 +15°C° 0 mm 6 mps 746 mmHg 60%
17:00 +14°C° 0 mm 5 mps 746 mmHg 63%
18:00 +13°C° 0 mm 5 mps 746 mmHg 66%
19:00 +13°C° 0.1 mm 5 mps 747 mmHg 69%
20:00 +13°C° 0.1 mm 4 mps 747 mmHg 71%
21:00 +13°C° 0.1 mm 4 mps 747 mmHg 74%
22:00 +12°C° 0.1 mm 4 mps 748 mmHg 74%
23:00 +12°C° 0.1 mm 5 mps 748 mmHg 75%

28 November, Saturday

Time Temperature Precipitation Wind Pressure Humidity
00:00 +12°C° 0.1 mm 5 mps 748 mmHg 75%
01:00 +12°C° 0 mm 5 mps 748 mmHg 76%
02:00 +12°C° 0 mm 5 mps 748 mmHg 76%
03:00 +10°C° 0 mm 6 mps 747 mmHg 77%
04:00 +10°C° 0 mm 6 mps 748 mmHg 75%
05:00 +10°C° 0 mm 5 mps 748 mmHg 74%
06:00 +10°C° 0 mm 5 mps 748 mmHg 73%
07:00 +10°C° 0 mm 5 mps 748 mmHg 72%
08:00 +10°C° 0 mm 5 mps 748 mmHg 71%
09:00 +10°C° 0 mm 5 mps 748 mmHg 70%
10:00 +9°C° 3.1 mm 5 mps 748 mmHg 77%
11:00 +10°C° 3.1 mm 4 mps 748 mmHg 83%
12:00 +8°C° 3.1 mm 4 mps 748 mmHg 89%
13:00 +8°C° 2.4 mm 4 mps 747 mmHg 90%
14:00 +8°C° 2.4 mm 4 mps 747 mmHg 90%
15:00 +8°C° 2.4 mm 5 mps 746 mmHg 90%
16:00 +8°C° 0.4 mm 4 mps 747 mmHg 90%
17:00 +7°C° 0.4 mm 4 mps 747 mmHg 90%
18:00 +7°C° 0.4 mm 4 mps 747 mmHg 89%
19:00 +8°C° 0 mm 3 mps 747 mmHg 89%
20:00 +8°C° 0 mm 3 mps 747 mmHg 89%
21:00 +8°C° 0 mm 3 mps 747 mmHg 88%
22:00 +8°C° 0 mm 3 mps 746 mmHg 86%
23:00 +7°C° 0 mm 4 mps 746 mmHg 84%

29 November, Sunday

Time Temperature Precipitation Wind Pressure Humidity
00:00 +7°C° 0 mm 4 mps 746 mmHg 81%
01:00 +7°C° 0 mm 4 mps 746 mmHg 81%
02:00 +6°C° 0 mm 4 mps 745 mmHg 81%
03:00 +6°C° 0 mm 4 mps 745 mmHg 81%
04:00 +5°C° 0 mm 4 mps 745 mmHg 82%
05:00 +5°C° 0 mm 4 mps 745 mmHg 83%
06:00 +5°C° 0 mm 4 mps 745 mmHg 84%
07:00 +5°C° 0 mm 4 mps 745 mmHg 82%
08:00 +5°C° 0 mm 5 mps 746 mmHg 80%
09:00 +6°C° 0 mm 5 mps 746 mmHg 79%
10:00 +7°C° 0 mm 5 mps 746 mmHg 73%
11:00 +9°C° 0 mm 5 mps 746 mmHg 68%
12:00 +10°C° 0 mm 5 mps 746 mmHg 62%
13:00 +12°C° 0 mm 5 mps 745 mmHg 58%
14:00 +12°C° 0 mm 5 mps 745 mmHg 55%
15:00 +13°C° 0 mm 4 mps 744 mmHg 51%
16:00 +12°C° 0 mm 4 mps 744 mmHg 54%
17:00 +11°C° 0 mm 3 mps 745 mmHg 57%
18:00 +10°C° 0 mm 2 mps 745 mmHg 60%
19:00 +10°C° 0 mm 4 mps 745 mmHg 59%
20:00 +9°C° 0 mm 5 mps 746 mmHg 59%
21:00 +9°C° 0 mm 6 mps 746 mmHg 58%
22:00 +8°C° 0 mm 6 mps 747 mmHg 57%
23:00 +8°C° 0 mm 7 mps 747 mmHg 56%

30 November, Monday

Time Temperature Precipitation Wind Pressure Humidity
00:00 +6°C° 0 mm 8 mps 748 mmHg 54%
01:00 +5°C° 0 mm 8 mps 749 mmHg 55%
02:00 +5°C° 0 mm 8 mps 749 mmHg 56%
03:00 +4°C° 0 mm 8 mps 750 mmHg 56%
04:00 +2°C° 0 mm 8 mps 750 mmHg 56%
05:00 +1°C° 0 mm 8 mps 751 mmHg 55%
06:00 0°C° 0 mm 9 mps 751 mmHg 54%
07:00 0°C° 0 mm 9 mps 752 mmHg 53%
08:00 0°C° 0 mm 9 mps 752 mmHg 51%
09:00 0°C° 0 mm 10 mps 753 mmHg 49%
10:00 0°C° 0 mm 10 mps 753 mmHg 45%
11:00 +1°C° 0 mm 9 mps 753 mmHg 41%
12:00 +2°C° 0 mm 9 mps 753 mmHg 37%
13:00 +3°C° 0 mm 10 mps 752 mmHg 33%
14:00 +3°C° 0 mm 10 mps 752 mmHg 30%
15:00 +5°C° 0 mm 10 mps 751 mmHg 27%
16:00 +4°C° 0 mm 8 mps 751 mmHg 28%
17:00 +3°C° 0 mm 7 mps 751 mmHg 30%
18:00 +2°C° 0 mm 6 mps 751 mmHg 32%
19:00 +2°C° 0 mm 6 mps 752 mmHg 33%
20:00 +1°C° 0 mm 6 mps 752 mmHg 33%
21:00 +1°C° 0 mm 5 mps 752 mmHg 34%
22:00 +1°C° 0 mm 5 mps 752 mmHg 34%
23:00 0°C° 0 mm 5 mps 752 mmHg 35%
Show more